Grissom AFB, IN

6:56 AM EST on February 22, 2017 (GMT -0500)
Grissom Air Reserve Base

Weather History for KGUS - April, 2014

Change the Weather History Date:

Monday, April 7, 2014

  Actual Average Record
Temperature  
Mean Temperature 43 °F -  
Max Temperature 50 °F 57 °F 78 °F (2001)
Min Temperature 36 °F 38 °F 23 °F (2007)
Degree Days  
Heating Degree Days 22    
Moisture  
Dew Point 39 °F    
Average Humidity 90    
Maximum Humidity 100    
Minimum Humidity 50    
Precipitation  
Precipitation 0.88 in - - ()
Sea Level Pressure  
Sea Level Pressure 29.67 in    
Wind  
Wind Speed 10 mph (NNE)    
Max Wind Speed 20 mph    
Max Gust Speed 25 mph    
Visibility 8 miles    
Events Rain    
Averages and records for this station are not official NWS values.
T = Trace of Precipitation, MM = Missing Value Source: NWS Daily Summary

Daily Weather History Graph

Daily Weather History Graph

Search for Another Location

Airport or City:

Trip Planner

Search our weather history database for the weather conditions in past years. The results will help you decide how hot, cold, wet, or windy it might be!

Date:

Astronomy

Apr. 07, 2014 Rise Set
Actual Time 7:18 AM EDT 8:15 PM EDT
Civil Twilight 6:50 AM EDT 8:43 PM EDT
Nautical Twilight 6:17 AM EDT 9:16 PM EDT
Astronomical Twilight 5:43 AM EDT 9:51 PM EDT
Moon 1:13 PM EDT (4/7) 2:53 AM EDT (4/7)
Length of Visible Light 13h 52m
Length of Day
12h 57m
First Quarter, 53% of the Moon is Illuminated
Apr 7
First Quarter
Apr 15
Full
Apr 22
Last Quarter
Apr 29
New
May 6
First Quarter

Hourly Weather History & Observations

Time (EDT) Temp. Windchill Dew Point Humidity Pressure Visibility Wind Dir Wind Speed Gust Speed Precip Events Conditions
12:58 AM 36.7 °F 31.2 °F 34.0 °F 90% 29.96 in 10.0 mi ENE 6.9 mph - N/A   Clear
1:58 AM 41.7 °F 37.3 °F 35.2 °F 78% 29.93 in 10.0 mi East 6.9 mph - N/A   Clear
2:58 AM 39.9 °F 35.1 °F 34.2 °F 80% 29.91 in 10.0 mi ENE 6.9 mph - N/A   Clear
3:58 AM 37.2 °F 31.9 °F 35.2 °F 93% 29.88 in 10.0 mi ENE 6.9 mph - N/A   Clear
4:58 AM 36.9 °F 30.7 °F 36.9 °F 100% 29.82 in 10.0 mi ENE 8.1 mph - N/A   Partly Cloudy
5:58 AM 39.2 °F 33.0 °F 37.0 °F 92% 29.82 in 10.0 mi East 9.2 mph - N/A   Mostly Cloudy
6:58 AM 38.5 °F 33.4 °F 37.2 °F 95% 29.81 in 10.0 mi NE 6.9 mph - N/A   Mostly Cloudy
7:58 AM 38.3 °F 32.5 °F 36.5 °F 93% 29.81 in 10.0 mi NNE 8.1 mph - N/A   Overcast
8:58 AM 38.8 °F 32.6 °F 36.9 °F 93% 29.80 in 10.0 mi NNE 9.2 mph - N/A   Overcast
9:58 AM 41.7 °F 34.8 °F 35.1 °F 77% 29.78 in 10.0 mi NE 12.7 mph - N/A   Mostly Cloudy
10:58 AM 47.8 °F - 33.8 °F 58% 29.71 in 10.0 mi ENE 15.0 mph - N/A   Mostly Cloudy
11:58 AM 50.4 °F - 32.4 °F 50% 29.69 in 10.0 mi ENE 12.7 mph - N/A   Overcast
12:42 PM 48.2 °F - 35.6 °F 62% 29.64 in 10.0 mi ENE 10.4 mph - N/A Rain Light Rain
12:58 PM 47.1 °F - 38.7 °F 72% 29.65 in 10.0 mi ENE 16.1 mph - 0.00 in Rain Light Rain
1:25 PM 46.4 °F 40.4 °F 39.2 °F 76% 29.59 in 10.0 mi NE 13.8 mph - N/A   Mostly Cloudy
1:58 PM 46.8 °F - 38.7 °F 73% 29.59 in 10.0 mi NE 12.7 mph - 0.00 in   Overcast
1:59 PM 46.4 °F 40.7 °F 39.2 °F 76% 29.57 in 10.0 mi NE 12.7 mph - N/A Rain Light Rain
2:58 PM 46.6 °F - 43.3 °F 88% 29.60 in 10.0 mi NE 11.5 mph - 0.01 in Rain Light Rain
3:58 PM 45.3 °F 38.7 °F 45.3 °F 100% 29.55 in 6.0 mi NNE 15.0 mph - 0.03 in Rain Light Rain
4:58 PM 44.2 °F 37.3 °F 44.2 °F 100% 29.55 in 6.0 mi North 15.0 mph - 0.09 in Rain Rain
5:58 PM 43.3 °F 36.5 °F 43.3 °F 100% 29.55 in 5.0 mi North 13.8 mph - 0.15 in Rain Rain
6:58 PM 42.4 °F 33.8 °F 42.4 °F 100% 29.55 in 6.0 mi North 19.6 mph 25.3 mph 0.19 in Rain Rain
7:58 PM 42.3 °F 34.1 °F 42.3 °F 100% 29.55 in 6.0 mi North 17.3 mph - 0.22 in Rain Rain
8:58 PM 42.1 °F 34.9 °F 42.1 °F 100% 29.57 in 7.0 mi North 13.8 mph - 0.08 in Rain Light Rain
9:38 PM 42.8 °F 36.6 °F 42.8 °F 100% 29.56 in 7.0 mi North 11.5 mph - N/A Rain Light Rain
9:58 PM 41.7 °F 35.6 °F 41.7 °F 100% 29.60 in 7.0 mi NNW 10.4 mph - 0.06 in Rain Light Rain
10:51 PM 41.0 °F 34.3 °F 41.0 °F 100% 29.59 in 7.0 mi NW 11.5 mph - N/A Rain Light Rain
10:56 PM 41.0 °F 33.9 °F 41.0 °F 100% 29.59 in 7.0 mi WNW 12.7 mph - N/A Rain Light Rain
10:57 PM 41.0 °F 33.9 °F 41.0 °F 100% 29.59 in 7.0 mi WNW 12.7 mph - N/A Rain Light Rain
10:58 PM 41.7 °F 34.8 °F 41.7 °F 100% 29.61 in 7.0 mi WNW 12.7 mph - 0.03 in Rain Light Rain
11:03 PM 41.0 °F 33.9 °F 41.0 °F 100% 29.59 in 7.0 mi WNW 12.7 mph - N/A Rain Light Rain
11:13 PM 41.0 °F 34.3 °F 41.0 °F 100% 29.59 in 6.0 mi WNW 11.5 mph - N/A Rain Light Rain
11:18 PM 41.0 °F 34.7 °F 41.0 °F 100% 29.59 in 6.0 mi WNW 10.4 mph - N/A Rain Light Rain
11:58 PM 41.5 °F 36.4 °F 41.5 °F 100% 29.62 in 8.0 mi WNW 8.1 mph - 0.02 in Rain Light Rain